YAOGAN 9B DEB

Satellite information

Favourite Embed

Satellite Type and Status

DEBRISIN ORBIT

Key statistics

Satellite YAOGAN 9B DEB at a glance.

Uptime

5543

Days in orbit

Revolutions

≈ 13.7

Per day

Orbit

LEO

Low Earth Orbit

Inclination

63.3

Latest

Satellite identification and parameters

Extended collection of information and parameters for YAOGAN 9B DEB.

Object identification

Identified? True

Debris? True

Object name: YAOGAN 9B DEB

International designator: 2010-009G

Object number (NORAD): 38303

Object ID (CCSDS): 38303

Country: PEOPLES REPUBLIC OF CHINA (PRC)

Current information (Y/N): Y

RCS size: SMALL

Orbital parameters

Period: 104.847 minutes

Inclination: 63.3469 deg

SMA: 7365.412 km

Apoapsis: 1343.121 km

Periapsis: 631.433 km

RAAN: 234.2879 deg

Eccentricy: 0.0483128

Argument of periapsis: 17.8321 deg

Mean anomaly: 343.9028 deg

Mean motion: 13.73432069 rev/day

Mean motion (dot): 0.00088897 rev/day2

B* drag term: 0.040462 1/REarth

Two-line elements (TLE)

Creation date: March 21, 2025, 1:56 p.m.

Reference frame: TEME

Reference center: EARTH

Epoch: Oct. 5, 2024, 7:53 a.m. UTC

TLE line 0: 0 YAOGAN 9B DEB

TLE line 1: 1 38303U 10009G 24279.32909367 .00088897 00000-0 40462-1 0 9997

TLE line 2: 2 38303 63.3469 234.2879 0483128 17.8321 343.9028 13.73432069715564

Live tracking on map

Real-time ground track for satellite YAOGAN 9B DEB.

In-orbit conjunctions

A list of the most updated potential collisions computed for object YAOGAN 9B DEB.

Target Orbit TCA Probability of collision Miss distance Type
METEOR 1-14 LEO 2024-09-26 04:00:52 0.0001136631 527.0 (m) PAYLOAD

Associated space launch

YAOGAN 9B DEB was lifted into orbit during the mission ‘Long March 4C | Yaogan-9’, on board a Long March 4C space rocket.

The launch took place on March 5, 2010, 4:55 a.m. from Launch Area 4 (SLS-2 / 603).

For more information about the launch, click the button.

Launch to space Long March 4C | Yaogan-9
Long March 4C | Yaogan-9

Agency: N/A

Status: Launch Successful

Launch date: March 5, 2010, 4:55 a.m. UTC

Rocket: Long March 4C

Launch pad: Launch Area 4 (SLS-2 / 603)

Location: Jiuquan Satellite Launch Center, People's Republic of China

...

Latest news about this satellite

There are no fresh news available about this satellite. Check back as we update our databases every day.


Newsletter sign-up

Weekly statistics, charts and insights to help you stay on top of the space industry.